This is the latest recevied weather packets stored in our database for station/object JS2WAD-13. If no packets are shown the sender has not sent any weather packets the latest 10 day(s).
| Time | Temp. | Humidity | Pressure | Rain* | Wind** | Luminosity | Snow |
|---|---|---|---|---|---|---|---|
| 1778018781 | 16.67° C | 80% | 912.8 hPa | 0 mm | - | 28 W/m² | - |
| 1778018481 | 16.67° C | 78% | 912.9 hPa | 0 mm | - | 21 W/m² | - |
| 1778018181 | 16.67° C | 78% | 912.9 hPa | 0 mm | - | 19 W/m² | - |
| 1778017881 | 16.67° C | 76% | 912.8 hPa | 0 mm | - | 16 W/m² | - |
| 1778017581 | 16.67° C | 76% | 912.7 hPa | 0 mm | - | 14 W/m² | - |
| 1778017281 | 16.67° C | 76% | 912.8 hPa | 0 mm | - | 11 W/m² | - |
| 1778016981 | 16.67° C | 75% | 912.7 hPa | 0 mm | - | 11 W/m² | - |
| 1778016682 | 16.67° C | 74% | 912.7 hPa | 0 mm | - | 12 W/m² | - |
| 1778016381 | 16.67° C | 74% | 912.6 hPa | 0 mm | - | 12 W/m² | - |
| 1778016081 | 16.67° C | 74% | 912.5 hPa | 0 mm | - | 11 W/m² | - |
| 1778015782 | 16.67° C | 74% | 912.6 hPa | 0 mm | - | 7 W/m² | - |
| 1778015482 | 16.67° C | 73% | 912.6 hPa | 0 mm | - | 7 W/m² | - |
| 1778015182 | 16.67° C | 73% | 912.5 hPa | 0 mm | - | 7 W/m² | - |
| 1778014882 | 16.67° C | 73% | 912.4 hPa | 0 mm | - | 7 W/m² | - |
| 1778014582 | 16.67° C | 72% | 912.3 hPa | 0 mm | - | 5 W/m² | - |
| 1778014282 | 17.22° C | 71% | 912.4 hPa | 0 mm | - | 5 W/m² | - |
| 1778013982 | 17.22° C | 71% | 912.4 hPa | 0 mm | - | 0 W/m² | - |
| 1778013682 | 16.67° C | 70% | 912.4 hPa | 0 mm | - | 0 W/m² | - |
| 1778013382 | 17.22° C | 70% | 912.3 hPa | 0 mm | - | 0 W/m² | - |
| 1778013082 | 16.67° C | 71% | 912.4 hPa | 0 mm | - | 0 W/m² | - |
| 1778012782 | 16.67° C | 76% | 912.4 hPa | 0 mm | - | 0 W/m² | - |
| 1778012482 | 16.67° C | 70% | 912.4 hPa | 0 mm | - | 0 W/m² | - |
| 1778012182 | 16.67° C | 71% | 912.5 hPa | 0 mm | - | 0 W/m² | - |
| 1778011882 | 16.67° C | 71% | 912.5 hPa | 0 mm | - | 0 W/m² | - |
| 1778011582 | 16.67° C | 71% | 912.5 hPa | 0 mm | - | 0 W/m² | - |
* Rain latest hour (hover to see other rain measurements)
** Current wind speed in m/s (hover to see current wind gust speed)